Time,TemperatureF,DewpointF,PressureIn,WindDirection,WindDirectionDegrees,WindSpeedMPH,WindSpeedGustMPH,Humidity,HourlyPrecipIn,Conditions,Clouds,dailyrainin,SolarRadiationWatts/m^2,SoftwareType,DateUTC
2013-10-14 00:22:00,39.0,35.0,-100.00,South,179,13.0,19.0,87,0.05,,,0.05,0.000000,,2013-10-14 06:22:00,
2013-10-14 00:32:00,39.0,35.0,-100.00,South,179,13.0,19.0,87,0.05,,,0.05,0.000000,,2013-10-14 06:32:00,
2013-10-14 00:42:00,39.0,35.0,-100.00,South,179,13.0,19.0,87,0.05,,,0.05,0.000000,,2013-10-14 06:42:00,
2013-10-14 01:22:00,40.0,34.0,-100.00,SSW,208,12.0,32.0,80,0.03,,,0.08,0.000000,,2013-10-14 07:22:00,
2013-10-14 01:32:00,40.0,34.0,-100.00,SSW,208,12.0,32.0,80,0.03,,,0.08,0.000000,,2013-10-14 07:32:00,
2013-10-14 01:42:00,40.0,34.0,-100.00,SSW,208,12.0,32.0,80,0.03,,,0.08,0.000000,,2013-10-14 07:42:00,
2013-10-14 02:21:00,36.0,35.0,-100.00,NW,324,14.0,24.0,95,0.01,,,0.09,0.000000,,2013-10-14 08:21:00,
2013-10-14 02:32:00,36.0,35.0,-100.00,NW,324,14.0,24.0,95,0.01,,,0.09,0.000000,,2013-10-14 08:32:00,
2013-10-14 02:42:00,36.0,35.0,-100.00,NW,324,14.0,24.0,95,0.01,,,0.09,0.000000,,2013-10-14 08:42:00,
2013-10-14 03:22:00,35.0,34.0,-100.00,North,355,7.0,16.0,98,0.02,,,0.11,0.000000,,2013-10-14 09:22:00,
2013-10-14 03:33:00,35.0,34.0,-100.00,North,355,7.0,16.0,98,0.02,,,0.11,0.000000,,2013-10-14 09:33:00,
2013-10-14 03:43:00,35.0,34.0,-100.00,North,355,7.0,16.0,98,0.02,,,0.11,0.000000,,2013-10-14 09:43:00,
2013-10-14 04:23:00,35.0,34.0,-100.00,NW,318,7.0,16.0,98,0.00,,,0.11,0.000000,,2013-10-14 10:23:00,
2013-10-14 04:32:00,35.0,34.0,-100.00,NW,318,7.0,16.0,98,0.00,,,0.11,0.000000,,2013-10-14 10:32:00,
2013-10-14 04:42:00,35.0,34.0,-100.00,NW,318,7.0,16.0,98,0.00,,,0.11,0.000000,,2013-10-14 10:42:00,
2013-10-14 05:22:00,32.0,32.0,-100.00,WNW,295,11.0,22.0,98,0.01,,,0.12,0.000000,,2013-10-14 11:22:00,
2013-10-14 05:32:00,32.0,32.0,-100.00,WNW,295,11.0,22.0,98,0.01,,,0.12,0.000000,,2013-10-14 11:32:00,
2013-10-14 05:42:00,32.0,32.0,-100.00,WNW,295,11.0,22.0,98,0.01,,,0.12,0.000000,,2013-10-14 11:42:00,
2013-10-14 06:22:00,30.0,29.0,-100.00,NNE,12,7.0,19.0,98,0.00,,,0.12,0.000000,,2013-10-14 12:22:00,
2013-10-14 06:32:00,30.0,29.0,-100.00,NNE,12,7.0,19.0,98,0.00,,,0.12,0.000000,,2013-10-14 12:32:00,
2013-10-14 06:42:00,30.0,29.0,-100.00,NNE,12,7.0,19.0,98,0.00,,,0.12,0.000000,,2013-10-14 12:42:00,
2013-10-14 07:21:00,31.0,31.0,-100.00,WSW,246,9.0,18.0,98,0.00,,,0.12,0.000000,,2013-10-14 13:21:00,
2013-10-14 07:32:00,31.0,31.0,-100.00,WSW,246,9.0,18.0,98,0.00,,,0.12,0.000000,,2013-10-14 13:32:00,
2013-10-14 07:42:00,31.0,31.0,-100.00,WSW,246,9.0,18.0,98,0.00,,,0.12,0.000000,,2013-10-14 13:42:00,
2013-10-14 08:22:00,32.0,28.0,-100.00,West,260,9.0,22.0,86,0.00,,,-99.99,2.000000,,2013-10-14 14:22:00,
2013-10-14 08:32:00,32.0,28.0,-100.00,West,260,9.0,22.0,86,0.00,,,-99.99,2.000000,,2013-10-14 14:32:00,
2013-10-14 08:42:00,32.0,28.0,-100.00,West,260,9.0,22.0,86,0.00,,,-99.99,2.000000,,2013-10-14 14:42:00,
2013-10-14 09:21:00,32.0,30.0,-100.00,SW,220,13.0,23.0,93,0.00,,,0.12,11.000000,,2013-10-14 15:21:00,
2013-10-14 09:33:00,32.0,30.0,-100.00,SW,220,13.0,23.0,93,0.00,,,0.12,11.000000,,2013-10-14 15:33:00,
2013-10-14 09:44:00,32.0,30.0,-100.00,SW,220,13.0,23.0,93,0.00,,,0.12,11.000000,,2013-10-14 15:44:00,
2013-10-14 10:23:00,32.0,31.0,-100.00,NNW,327,9.0,14.0,95,0.00,,,0.12,22.000000,,2013-10-14 16:23:00,
2013-10-14 10:32:00,32.0,31.0,-100.00,NNW,327,9.0,14.0,95,0.00,,,0.12,22.000000,,2013-10-14 16:32:00,
2013-10-14 10:42:00,32.0,31.0,-100.00,NNW,327,9.0,14.0,95,0.00,,,0.12,22.000000,,2013-10-14 16:42:00,
2013-10-14 11:22:00,34.0,33.0,-100.00,NE,42,3.0,14.0,95,0.00,,,0.12,38.000000,,2013-10-14 17:22:00,
2013-10-14 11:33:00,34.0,33.0,-100.00,NE,42,3.0,14.0,95,0.00,,,0.12,38.000000,,2013-10-14 17:33:00,
2013-10-14 11:42:00,34.0,33.0,-100.00,NE,42,3.0,14.0,95,0.00,,,0.12,38.000000,,2013-10-14 17:42:00,
2013-10-14 12:22:00,36.0,34.0,-100.00,North,350,6.0,11.0,92,0.14,,,0.26,432.000000,,2013-10-14 18:22:00,
2013-10-14 12:32:00,36.0,34.0,-100.00,North,350,6.0,11.0,92,0.14,,,0.26,432.000000,,2013-10-14 18:32:00,
2013-10-14 12:42:00,36.0,34.0,-100.00,North,350,6.0,11.0,92,0.14,,,0.26,432.000000,,2013-10-14 18:42:00,
2013-10-14 13:21:00,33.0,32.0,-100.00,NNW,342,12.0,16.0,96,0.08,,,0.34,258.000000,,2013-10-14 19:21:00,
2013-10-14 13:32:00,33.0,32.0,-100.00,NNW,342,12.0,16.0,96,0.08,,,0.34,258.000000,,2013-10-14 19:32:00,
2013-10-14 13:42:00,33.0,32.0,-100.00,NNW,342,12.0,16.0,96,0.08,,,0.34,258.000000,,2013-10-14 19:42:00,
2013-10-14 14:22:00,37.0,35.0,-100.00,NNW,337,6.0,20.0,94,0.08,,,0.42,327.000000,,2013-10-14 20:22:00,
2013-10-14 14:32:00,37.0,35.0,-100.00,NNW,337,6.0,20.0,94,0.08,,,0.42,327.000000,,2013-10-14 20:32:00,
2013-10-14 14:42:00,37.0,35.0,-100.00,NNW,337,6.0,20.0,94,0.08,,,0.42,327.000000,,2013-10-14 20:42:00,
2013-10-14 15:21:00,32.0,31.0,-100.00,NW,324,12.0,17.0,97,0.03,,,0.45,175.000000,,2013-10-14 21:21:00,
2013-10-14 15:34:00,32.0,31.0,-100.00,NW,324,12.0,17.0,97,0.03,,,0.45,175.000000,,2013-10-14 21:34:00,
2013-10-14 15:44:00,32.0,31.0,-100.00,NW,324,12.0,17.0,97,0.03,,,0.45,175.000000,,2013-10-14 21:44:00,
2013-10-14 16:24:00,34.0,33.0,-100.00,West,276,5.0,22.0,96,0.05,,,0.50,246.000000,,2013-10-14 22:24:00,
2013-10-14 16:32:00,34.0,33.0,-100.00,West,276,5.0,22.0,96,0.05,,,0.50,246.000000,,2013-10-14 22:32:00,
2013-10-14 16:43:00,34.0,33.0,-100.00,West,276,5.0,22.0,96,0.05,,,0.50,246.000000,,2013-10-14 22:43:00,
2013-10-14 17:22:00,35.0,34.0,-100.00,North,2,5.0,13.0,97,0.04,,,0.54,268.000000,,2013-10-14 23:22:00,
2013-10-14 17:34:00,35.0,34.0,-100.00,North,2,5.0,13.0,97,0.04,,,0.54,268.000000,,2013-10-14 23:34:00,
2013-10-14 17:42:00,35.0,34.0,-100.00,North,2,5.0,13.0,97,0.04,,,0.54,268.000000,,2013-10-14 23:42:00,
2013-10-14 18:22:00,34.0,33.0,-100.00,NW,318,4.0,11.0,96,0.00,,,0.54,128.000000,,2013-10-15 00:22:00,
2013-10-14 18:32:00,34.0,33.0,-100.00,NW,318,4.0,11.0,96,0.00,,,0.54,128.000000,,2013-10-15 00:32:00,
2013-10-14 18:42:00,34.0,33.0,-100.00,NW,318,4.0,11.0,96,0.00,,,0.54,128.000000,,2013-10-15 00:42:00,
2013-10-14 19:21:00,31.0,30.0,-100.00,NNW,330,1.0,8.0,97,0.00,,,0.54,22.000000,,2013-10-15 01:21:00,
2013-10-14 19:32:00,31.0,30.0,-100.00,NNW,330,1.0,8.0,97,0.00,,,0.54,22.000000,,2013-10-15 01:32:00,
2013-10-14 19:42:00,31.0,30.0,-100.00,NNW,330,1.0,8.0,97,0.00,,,0.54,22.000000,,2013-10-15 01:42:00,
2013-10-14 20:22:00,31.0,31.0,-100.00,North,358,6.0,8.0,98,0.00,,,0.54,0.000000,,2013-10-15 02:22:00,
2013-10-14 20:32:00,31.0,31.0,-100.00,North,358,6.0,8.0,98,0.00,,,0.54,0.000000,,2013-10-15 02:32:00,
2013-10-14 20:42:00,31.0,31.0,-100.00,North,358,6.0,8.0,98,0.00,,,0.54,0.000000,,2013-10-15 02:42:00,
2013-10-14 21:23:00,31.0,31.0,-100.00,NNW,344,4.0,9.0,98,0.00,,,0.54,0.000000,,2013-10-15 03:23:00,
2013-10-14 21:34:00,31.0,31.0,-100.00,NNW,344,4.0,9.0,98,0.00,,,0.54,0.000000,,2013-10-15 03:34:00,
2013-10-14 21:44:00,31.0,31.0,-100.00,NNW,344,4.0,9.0,98,0.00,,,0.54,0.000000,,2013-10-15 03:44:00,
2013-10-14 22:24:00,31.0,31.0,-100.00,SW,230,2.0,6.0,98,0.00,,,0.54,0.000000,,2013-10-15 04:24:00,
2013-10-14 22:34:00,31.0,31.0,-100.00,SW,230,2.0,6.0,98,0.00,,,0.54,0.000000,,2013-10-15 04:34:00,
2013-10-14 22:43:00,31.0,31.0,-100.00,SW,230,2.0,6.0,98,0.00,,,0.54,0.000000,,2013-10-15 04:43:00,
2013-10-14 23:22:00,30.0,29.0,-100.00,NW,324,1.0,5.0,97,0.00,,,0.54,0.000000,,2013-10-15 05:22:00,
2013-10-14 23:34:00,30.0,29.0,-100.00,NW,324,1.0,5.0,97,0.00,,,0.54,0.000000,,2013-10-15 05:34:00,
2013-10-14 23:42:00,30.0,29.0,-100.00,NW,324,1.0,5.0,97,0.00,,,0.54,0.000000,,2013-10-15 05:42:00,